"read_dt","SO2 (ppb)","flags","PMT voltage (V)","lamp voltage (V)","lamp intensity (Hz)","internal temp (C)","react chamber temp (C)","sample flow (l/min)","pres (mmHg)","SO2 bkg (ppb)","SO2 coefficient"
2014-04-17 00:00:00,3141E-2,5C000400,-0724,1048,9886,028.6,045.3,0.000,748.4,01.17,0.508
2014-04-17 00:01:00,3097E-2,5C000400,-0724,1048,10047,028.6,045.3,0.000,748.4,01.17,0.508
2014-04-17 00:02:00,3168E-2,5C000400,-0724,1047,10145,028.6,045.3,0.000,748.4,01.17,0.508
2014-04-17 00:03:00,3149E-2,5C000410,-0724,1047,10028,028.6,045.3,0.000,748.4,01.17,0.508
2014-04-17 00:04:00,3093E-2,5C000400,-0724,1049,10126,028.6,045.3,0.000,748.4,01.17,0.508
2014-04-17 00:05:00,3169E-2,5C000400,-0724,1047,10095,028.6,045.3,0.000,748.4,01.17,0.508
2014-04-17 00:06:00,3105E-2,5C000410,-0724,1047,9866,028.6,045.3,0.000,748.4,01.17,0.508
2014-04-17 00:07:00,3149E-2,5C000400,-0724,1048,10284,028.6,045.3,0.000,748.4,01.17,0.508
2014-04-17 00:08:00,3153E-2,5C000410,-0724,1048,9974,028.6,045.3,0.000,748.4,01.17,0.508
2014-04-17 00:09:00,3100E-2,5C000400,-0724,1049,10061,028.6,045.3,0.000,748.4,01.17,0.508
2014-04-17 00:10:00,3155E-2,5C000410,-0724,1048,9904,028.5,045.3,0.000,748.5,01.17,0.508
2014-04-17 00:11:00,3114E-2,5C000400,-0724,1049,10046,028.5,045.4,0.000,748.4,01.17,0.508
2014-04-17 00:12:00,3182E-2,5C000400,-0724,1048,10108,028.5,045.3,0.000,748.5,01.17,0.508
2014-04-17 00:13:00,3129E-2,5C000400,-0724,1048,10021,028.5,045.3,0.000,748.5,01.17,0.508
2014-04-17 00:14:00,3155E-2,5C000400,-0724,1048,10109,028.5,045.3,0.000,748.5,01.17,0.508
2014-04-17 00:15:00,3129E-2,5C000400,-0724,1048,10068,028.5,045.3,0.000,748.6,01.17,0.508
2014-04-17 00:16:00,3178E-2,5C000410,-0724,1047,9988,028.5,045.3,0.000,748.6,01.17,0.508
2014-04-17 00:17:00,3132E-2,5C000410,-0724,1048,9865,028.5,045.3,0.000,748.6,01.17,0.508
2014-04-17 00:18:00,3154E-2,5C000400,-0724,1047,10127,028.5,045.3,0.000,748.6,01.17,0.508
2014-04-17 00:19:00,3189E-2,5C000400,-0724,1048,9909,028.5,045.3,0.000,748.6,01.17,0.508
2014-04-17 00:20:00,3157E-2,5C000400,-0724,1048,10116,028.5,045.3,0.206,748.8,01.17,0.508
2014-04-17 00:21:00,3115E-2,5C000000,-0724,1047,10106,028.5,045.3,0.294,749.1,01.17,0.508
2014-04-17 00:22:00,3206E-2,5C000000,-0724,1048,10136,028.4,045.3,0.362,750.0,01.17,0.508
2014-04-17 00:23:00,3157E-2,5C000000,-0724,1048,10024,028.5,045.3,0.347,749.9,01.17,0.508
2014-04-17 00:24:00,3157E-2,5C000000,-0724,1046,10097,028.5,045.3,0.321,749.8,01.17,0.508
2014-04-17 00:25:00,3178E-2,5C000000,-0724,1048,10132,028.4,045.4,0.306,749.7,01.17,0.508
2014-04-17 00:26:00,3215E-2,5C000000,-0724,1047,10207,028.4,045.3,0.330,749.8,01.17,0.508
2014-04-17 00:27:00,3183E-2,5C000000,-0724,1048,10070,028.4,045.3,0.349,749.8,01.17,0.508
2014-04-17 00:28:00,3170E-2,5C000000,-0724,1048,10073,028.4,045.3,0.364,749.8,01.17,0.508
2014-04-17 00:29:00,3200E-2,5C000000,-0724,1047,10037,028.4,045.3,0.370,749.8,01.17,0.508
2014-04-17 00:30:00,3160E-2,5C000400,-0724,1048,9997,028.4,045.3,0.158,749.2,01.17,0.508
2014-04-17 00:31:00,3159E-2,5C000400,-0724,1047,9994,028.4,045.3,0.225,749.3,01.17,0.508
2014-04-17 00:32:00,3167E-2,5C000000,-0724,1048,10038,028.4,045.3,0.288,749.5,01.17,0.508
2014-04-17 00:33:00,3178E-2,5C000010,-0724,1048,10045,028.4,045.3,0.337,749.7,01.17,0.508
2014-04-17 00:34:00,3149E-2,5C000000,-0724,1048,10042,028.4,045.3,0.362,749.7,01.17,0.508
2014-04-17 00:35:00,3152E-2,5C000000,-0724,1049,9924,028.4,045.3,0.375,749.8,01.17,0.508
2014-04-17 00:36:00,3214E-2,5C000000,-0724,1047,10115,028.3,045.3,0.393,749.8,01.17,0.508
2014-04-17 00:37:00,3145E-2,5C000010,-0724,1048,10135,028.4,045.3,0.415,750.0,01.17,0.508
2014-04-17 00:38:00,3155E-2,5C000000,-0724,1046,10010,028.3,045.3,0.426,750.0,01.17,0.508
2014-04-17 00:39:00,3164E-2,5C000010,-0724,1047,10067,028.3,045.3,0.435,750.0,01.17,0.508
2014-04-17 00:40:00,3188E-2,5C000010,-0724,1046,10173,028.3,045.3,0.442,750.1,01.17,0.508
2014-04-17 00:41:00,3185E-2,5C000000,-0724,1047,10013,028.3,045.3,0.454,750.1,01.17,0.508
2014-04-17 00:42:00,3148E-2,5C000010,-0724,1047,10059,028.3,045.3,0.469,750.3,01.17,0.508
2014-04-17 00:43:00,3187E-2,5C000010,-0724,1047,9901,028.3,045.3,0.472,750.3,01.17,0.508
2014-04-17 00:44:00,3211E-2,5C000000,-0724,1049,10093,028.3,045.3,0.479,750.3,01.17,0.508
2014-04-17 00:45:00,3172E-2,5C000000,-0724,1047,10029,028.3,045.3,0.494,750.4,01.17,0.508
2014-04-17 00:46:00,3202E-2,5C000000,-0724,1047,10110,028.2,045.3,0.491,750.4,01.17,0.508
2014-04-17 00:47:00,3207E-2,5C000000,-0724,1047,10032,028.2,045.3,0.502,750.5,01.17,0.508
2014-04-17 00:48:00,3203E-2,5C000000,-0724,1048,10059,028.2,045.3,0.514,750.5,01.17,0.508
2014-04-17 00:49:00,3211E-2,5C000010,-0724,1046,9969,028.2,045.3,0.524,750.6,01.17,0.508
2014-04-17 00:50:00,3182E-2,5C000000,-0724,1046,10102,028.2,045.3,0.536,750.7,01.17,0.508
2014-04-17 00:51:00,3133E-2,5C000000,-0724,1045,10011,028.2,045.3,0.541,750.7,01.17,0.508
2014-04-17 00:52:00,3160E-2,5C000000,-0724,1043,10045,028.2,045.3,0.554,750.8,01.17,0.508
2014-04-17 00:53:00,3230E-2,5C000000,-0724,1042,10120,028.2,045.3,0.560,750.8,01.17,0.508
2014-04-17 00:54:00,3112E-2,5C000000,-0724,1043,10278,028.2,045.3,0.567,750.8,01.17,0.508
2014-04-17 00:55:00,3140E-2,5C000000,-0724,1042,10048,028.2,045.3,0.581,751.0,01.17,0.508
2014-04-17 00:56:00,3162E-2,5C000000,-0724,1042,10102,028.2,045.3,0.585,751.0,01.17,0.508
2014-04-17 00:57:00,3191E-2,5C000000,-0724,1042,10089,028.2,045.3,0.585,751.0,01.17,0.508
2014-04-17 00:58:00,3190E-2,5C000000,-0724,1040,10168,028.1,045.3,0.594,751.0,01.17,0.508
2014-04-17 00:59:00,3135E-2,5C000000,-0724,1041,10134,028.1,045.3,0.608,751.1,01.17,0.508
2014-04-17 01:00:00,3167E-2,5C000000,-0724,1040,10095,028.1,045.3,0.603,751.1,01.17,0.508
2014-04-17 01:01:00,3205E-2,5C000000,-0724,1040,10056,028.1,045.3,0.605,751.1,01.17,0.508
2014-04-17 01:02:00,3160E-2,5C000000,-0724,1040,10095,028.1,045.3,0.614,751.2,01.17,0.508
2014-04-17 01:03:00,3128E-2,5C000000,-0724,1039,10010,028.1,045.3,0.626,751.3,01.17,0.508
2014-04-17 01:04:00,3140E-2,5C000000,-0724,1040,10141,028.1,045.3,0.630,751.3,01.17,0.508
2014-04-17 01:05:00,3168E-2,5C000000,-0724,1040,10146,028.1,045.3,0.640,751.3,01.17,0.508
2014-04-17 01:06:00,3126E-2,5C000000,-0724,1038,10091,028.1,045.3,0.646,751.4,01.17,0.508
2014-04-17 01:07:00,3176E-2,5C000800,-0724,1036,10222,028.1,045.3,0.652,751.4,01.17,0.508
2014-04-17 01:08:00,3173E-2,5C000800,-0724,1036,10210,028.1,045.3,0.652,751.5,01.17,0.508
2014-04-17 01:09:00,3141E-2,5C000000,-0724,1038,10218,028.1,045.3,0.647,751.4,01.17,0.508
2014-04-17 01:10:00,3151E-2,5C000800,-0724,1037,10091,028.1,045.3,0.653,751.4,01.17,0.508
2014-04-17 01:11:00,3156E-2,5C000800,-0724,1036,9989,028.1,045.3,0.659,751.5,01.17,0.508
2014-04-17 01:12:00,3115E-2,5C000800,-0724,1037,10044,028.1,045.3,0.661,751.5,01.17,0.508
2014-04-17 01:13:00,3189E-2,5C000800,-0724,1037,9996,028.1,045.3,0.661,751.5,01.17,0.508
2014-04-17 01:14:00,3150E-2,5C000800,-0724,1037,10175,028.0,045.3,0.665,751.5,01.17,0.508
2014-04-17 01:15:00,3182E-2,5C000800,-0724,1037,9953,028.1,045.3,0.671,751.6,01.17,0.508
2014-04-17 01:16:00,3157E-2,5C000800,-0724,1037,10189,028.0,045.3,0.667,751.5,01.17,0.508
2014-04-17 01:17:00,3141E-2,5C000800,-0724,1036,10082,028.0,045.3,0.671,751.5,01.17,0.508
2014-04-17 01:18:00,3144E-2,5C000800,-0724,1036,10085,028.0,045.3,0.677,751.6,01.17,0.508
2014-04-17 01:19:00,3137E-2,5C000800,-0724,1036,10186,028.0,045.3,0.676,751.6,01.17,0.508
2014-04-17 01:20:00,3143E-2,5C000800,-0724,1036,10158,028.0,045.3,0.675,751.5,01.17,0.508
2014-04-17 01:21:00,3164E-2,5C000800,-0724,1037,10262,028.0,045.3,0.683,751.6,01.17,0.508
2014-04-17 01:22:00,3153E-2,5C000800,-0724,1038,10035,028.0,045.3,0.679,751.5,01.17,0.508
2014-04-17 01:23:00,3183E-2,5C000800,-0724,1036,10193,028.0,045.3,0.685,751.6,01.17,0.508
2014-04-17 01:24:00,3132E-2,5C000800,-0724,1036,10133,028.0,045.3,0.690,751.6,01.17,0.508
2014-04-17 01:25:00,3191E-2,5C000800,-0724,1035,10083,028.0,045.3,0.689,751.6,01.17,0.508
2014-04-17 01:26:00,3154E-2,5C000800,-0724,1035,10223,028.0,045.3,0.689,751.6,01.17,0.508
2014-04-17 01:27:00,3166E-2,5C000800,-0724,1036,10147,028.0,045.3,0.691,751.6,01.17,0.508
2014-04-17 01:28:00,3129E-2,5C000800,-0724,1036,10243,028.0,045.3,0.693,751.6,01.17,0.508
2014-04-17 01:29:00,3160E-2,5C000800,-0724,1038,10173,028.0,045.3,0.695,751.6,01.17,0.508
2014-04-17 01:30:00,3153E-2,5C000800,-0724,1036,10181,028.0,045.3,0.698,751.6,01.17,0.508
2014-04-17 01:31:00,3174E-2,5C000800,-0724,1037,10144,028.0,045.3,0.701,751.7,01.17,0.508
2014-04-17 01:32:00,3171E-2,5C000800,-0724,1035,10036,028.0,045.3,0.703,751.7,01.17,0.508
2014-04-17 01:33:00,3145E-2,5C000800,-0724,1036,10305,028.0,045.3,0.702,751.7,01.17,0.508
2014-04-17 01:34:00,3108E-2,5C000800,-0724,1037,10112,028.0,045.3,0.702,751.7,01.17,0.508
2014-04-17 01:35:00,3134E-2,5C000800,-0724,1036,9719,028.0,045.3,0.698,751.7,01.17,0.508
2014-04-17 01:36:00,3112E-2,5C000800,-0724,1037,10146,027.9,045.3,0.700,751.7,01.17,0.508
2014-04-17 01:37:00,3179E-2,5C000800,-0724,1035,10223,028.0,045.3,0.701,751.7,01.17,0.508
2014-04-17 01:38:00,3110E-2,5C000800,-0724,1036,10202,027.9,045.3,0.702,751.7,01.17,0.508
2014-04-17 01:39:00,3129E-2,5C000800,-0724,1037,10060,028.0,045.3,0.704,751.7,01.17,0.508
2014-04-17 01:40:00,3145E-2,5C000800,-0724,1035,9943,028.0,045.3,0.702,751.6,01.17,0.508
2014-04-17 01:41:00,3137E-2,5C000810,-0724,1037,9772,027.9,045.3,0.708,751.7,01.17,0.508
2014-04-17 01:42:00,3168E-2,5C000800,-0724,1035,10170,027.9,045.3,0.713,751.7,01.17,0.508
2014-04-17 01:43:00,3159E-2,5C000800,-0724,1036,10046,027.9,045.3,0.718,751.8,01.17,0.508
2014-04-17 01:44:00,3141E-2,5C000800,-0724,1037,10217,027.9,045.3,0.719,751.8,01.17,0.508
2014-04-17 01:45:00,3125E-2,5C000800,-0724,1037,10133,027.9,045.3,0.717,751.7,01.17,0.508
2014-04-17 01:46:00,3129E-2,5C000800,-0724,1037,10113,027.9,045.3,0.721,751.8,01.17,0.508
2014-04-17 01:47:00,3194E-2,5C000800,-0724,1035,10234,027.9,045.3,0.716,751.8,01.17,0.508
2014-04-17 01:48:00,3151E-2,5C000800,-0724,1035,10085,027.9,045.3,0.717,751.7,01.17,0.508
2014-04-17 01:49:00,3142E-2,5C000800,-0724,1036,10059,027.9,045.3,0.728,751.8,01.17,0.508
2014-04-17 01:50:00,3143E-2,5C000800,-0724,1037,10269,027.9,045.3,0.674,751.9,01.17,0.508
2014-04-17 01:51:00,3149E-2,5C000000,-0724,1037,10212,027.9,045.3,0.648,751.9,01.17,0.508
2014-04-17 01:52:00,3139E-2,5C000000,-0724,1036,9975,027.9,045.3,0.643,751.8,01.17,0.508
2014-04-17 01:53:00,3152E-2,5C000000,-0724,1037,10178,027.9,045.3,0.643,751.8,01.17,0.508
2014-04-17 01:54:00,3145E-2,5C000000,-0724,1036,10230,027.9,045.3,0.641,751.9,01.17,0.508
2014-04-17 01:55:00,3158E-2,5C000000,-0724,1036,10294,027.9,045.3,0.636,751.8,01.17,0.508
2014-04-17 01:56:00,3165E-2,5C000000,-0724,1036,10242,027.9,045.3,0.638,751.8,01.17,0.508
2014-04-17 01:57:00,3175E-2,5C000000,-0724,1035,10202,027.9,045.3,0.637,751.9,01.17,0.508
2014-04-17 01:58:00,3121E-2,5C000000,-0724,1036,10172,027.9,045.3,0.640,752.0,01.17,0.508
2014-04-17 01:59:00,3182E-2,5C000000,-0724,1036,10192,027.9,045.3,0.643,752.0,01.17,0.508
2014-04-17 02:00:00,3163E-2,5C000000,-0724,1036,10234,027.8,045.3,0.640,752.0,01.17,0.508
2014-04-17 02:01:00,3116E-2,5C000000,-0724,1036,10270,027.8,045.3,0.641,752.0,01.17,0.508
2014-04-17 02:02:00,3086E-2,5C000800,-0724,1036,10274,027.8,045.3,0.651,752.0,01.17,0.508
2014-04-17 02:03:00,3134E-2,5C000800,-0724,1036,10168,027.8,045.3,0.661,752.1,01.17,0.508
2014-04-17 02:04:00,3148E-2,5C000800,-0724,1037,10283,027.8,045.3,0.669,752.1,01.17,0.508
2014-04-17 02:05:00,3113E-2,5C000800,-0724,1036,10133,027.8,045.3,0.673,752.1,01.17,0.508
2014-04-17 02:06:00,3141E-2,5C000800,-0724,1035,10183,027.8,045.3,0.680,752.2,01.17,0.508
2014-04-17 02:07:00,3119E-2,5C000800,-0724,1034,10187,027.8,045.3,0.687,752.2,01.17,0.508
2014-04-17 02:08:00,3102E-2,5C000800,-0724,1036,10039,027.8,045.3,0.687,752.2,01.17,0.508
2014-04-17 02:09:00,3113E-2,5C000800,-0724,1035,10007,027.8,045.3,0.702,752.3,01.17,0.508
2014-04-17 02:10:00,3163E-2,5C000800,-0724,1035,10107,027.8,045.3,0.708,752.3,01.17,0.508
2014-04-17 02:11:00,3137E-2,5C000800,-0724,1036,10239,027.8,045.3,0.708,752.3,01.17,0.508
2014-04-17 02:12:00,3140E-2,5C000800,-0724,1036,10255,027.8,045.3,0.716,752.4,01.17,0.508
2014-04-17 02:13:00,3176E-2,5C000800,-0724,1035,10093,027.8,045.3,0.723,752.4,01.17,0.508
2014-04-17 02:14:00,3141E-2,5C000800,-0724,1036,10120,027.8,045.3,0.726,752.4,01.17,0.508
2014-04-17 02:15:00,3120E-2,5C000800,-0724,1035,10166,027.8,045.3,0.738,752.5,01.17,0.508
2014-04-17 02:16:00,3105E-2,5C000800,-0724,1035,10002,027.8,045.3,0.743,752.5,01.17,0.508
2014-04-17 02:17:00,3141E-2,5C000800,-0724,1034,10173,027.8,045.3,0.744,752.5,01.17,0.508
2014-04-17 02:18:00,3214E-2,5C000800,-0724,1035,10225,027.8,045.3,0.752,752.6,01.17,0.508
2014-04-17 02:19:00,3165E-2,5C000800,-0724,1034,10143,027.8,045.3,0.753,752.6,01.17,0.508
2014-04-17 02:20:00,3209E-2,5C000800,-0724,1034,10323,027.8,045.3,0.749,752.7,01.17,0.508
2014-04-17 02:21:00,3202E-2,5C000800,-0724,1034,10223,027.8,045.3,0.746,752.7,01.17,0.508
2014-04-17 02:22:00,3185E-2,5C000800,-0724,1036,10123,027.8,045.3,0.750,752.8,01.17,0.508
2014-04-17 02:23:00,3218E-2,5C000800,-0724,1034,10058,027.7,045.3,0.748,752.7,01.17,0.508
2014-04-17 02:24:00,3166E-2,5C000800,-0724,1034,10173,027.7,045.3,0.754,752.8,01.17,0.508
2014-04-17 02:25:00,3237E-2,5C000800,-0724,1034,10115,027.7,045.3,0.760,752.9,01.17,0.508
2014-04-17 02:26:00,3216E-2,5C000800,-0724,1035,10044,027.7,045.3,0.765,752.9,01.17,0.508
2014-04-17 02:27:00,3177E-2,5C000800,-0724,1035,10323,027.7,045.3,0.767,753.0,01.17,0.508
2014-04-17 02:28:00,3182E-2,5C000800,-0724,1034,10083,027.7,045.3,0.755,752.9,01.17,0.508
2014-04-17 02:29:00,3230E-2,5C000800,-0724,1035,10302,027.7,045.3,0.751,753.0,01.17,0.508
2014-04-17 02:30:00,3199E-2,5C000800,-0724,1035,10284,027.7,045.3,0.739,753.0,01.17,0.508
2014-04-17 02:31:00,3213E-2,5C000800,-0724,1035,10338,027.7,045.3,0.737,753.0,01.17,0.508
2014-04-17 02:32:00,3193E-2,5C000800,-0724,1036,10337,027.7,045.3,0.735,753.0,01.17,0.508
2014-04-17 02:33:00,3211E-2,5C000800,-0724,1035,10074,027.7,045.3,0.728,753.0,01.17,0.508
2014-04-17 02:34:00,3245E-2,5C000800,-0724,1034,10076,027.7,045.3,0.725,753.0,01.17,0.508
2014-04-17 02:35:00,3202E-2,5C000800,-0724,1035,10137,027.7,045.3,0.726,753.0,01.17,0.508
2014-04-17 02:36:00,3216E-2,5C000800,-0724,1034,10196,027.7,045.3,0.731,753.1,01.17,0.508
2014-04-17 02:37:00,3291E-2,5C000800,-0724,1035,10173,027.7,045.3,0.732,753.1,01.17,0.508
2014-04-17 02:38:00,3227E-2,5C000800,-0724,1035,10099,027.7,045.3,0.732,753.1,01.17,0.508
2014-04-17 02:39:00,3211E-2,5C000800,-0724,1035,10135,027.7,045.3,0.729,753.0,01.17,0.508
2014-04-17 02:40:00,3213E-2,5C000800,-0724,1026,10415,027.7,045.3,0.737,753.1,01.17,0.508
2014-04-17 02:41:00,3068E-2,5C000800,-0724,1024,10332,027.7,045.3,0.736,753.1,01.17,0.508
2014-04-17 02:42:00,3038E-2,5C000800,-0724,1022,10251,027.7,045.3,0.735,753.1,01.17,0.508
2014-04-17 02:43:00,3023E-2,5C000800,-0724,1023,10268,027.7,045.3,0.739,753.1,01.17,0.508
2014-04-17 02:44:00,3032E-2,5C000800,-0724,1022,10328,027.6,045.3,0.744,753.1,01.17,0.508
2014-04-17 02:45:00,3042E-2,5C000800,-0724,1021,10386,027.7,045.3,0.750,753.2,01.17,0.508
2014-04-17 02:46:00,2989E-2,5C000800,-0724,1023,10307,027.6,045.3,0.751,753.2,01.17,0.508
2014-04-17 02:47:00,2993E-2,5C000800,-0724,1023,10441,027.6,045.3,0.748,753.2,01.17,0.508
2014-04-17 02:48:00,3034E-2,5C000800,-0724,1024,10397,027.6,045.3,0.746,753.2,01.17,0.508
2014-04-17 02:49:00,3022E-2,5C000800,-0724,1025,10294,027.6,045.3,0.747,753.3,01.17,0.508
2014-04-17 02:50:00,3070E-2,5C000800,-0724,1025,10319,027.6,045.3,0.750,753.3,01.17,0.508
2014-04-17 02:51:00,2982E-2,5C000800,-0724,1027,10148,027.6,045.3,0.749,753.4,01.17,0.508
2014-04-17 02:52:00,3070E-2,5C000800,-0724,1027,10275,027.6,045.3,0.742,753.3,01.17,0.508
2014-04-17 02:53:00,3069E-2,5C000800,-0724,1027,10310,027.6,045.3,0.746,753.3,01.17,0.508
2014-04-17 02:54:00,3051E-2,5C000800,-0724,1028,10249,027.6,045.3,0.752,753.4,01.17,0.508
2014-04-17 02:55:00,3036E-2,5C000800,-0724,1028,10253,027.6,045.3,0.752,753.4,01.17,0.508
2014-04-17 02:56:00,3089E-2,5C000800,-0724,1028,10155,027.6,045.3,0.748,753.4,01.17,0.508
2014-04-17 02:57:00,3048E-2,5C000800,-0724,1028,10209,027.6,045.3,0.741,753.5,01.17,0.508
2014-04-17 02:58:00,3070E-2,5C000800,-0724,1029,10256,027.6,045.3,0.662,753.4,01.17,0.508
2014-04-17 02:59:00,3076E-2,5C000000,-0724,1031,10306,027.6,045.3,0.646,753.5,01.17,0.508
2014-04-17 03:00:00,3084E-2,5C000000,-0724,1030,10129,027.6,045.3,0.644,753.5,01.17,0.508
2014-04-17 03:01:00,3081E-2,5C000000,-0724,1031,10274,027.5,045.3,0.637,753.5,01.17,0.508
2014-04-17 03:02:00,3107E-2,5C000000,-0724,1031,10284,027.6,045.3,0.622,753.6,01.17,0.508
2014-04-17 03:03:00,3026E-2,5C000000,-0724,1031,10226,027.6,045.3,0.628,753.5,01.17,0.508
2014-04-17 03:04:00,3097E-2,5C000000,-0724,1032,10239,027.6,045.3,0.634,753.6,01.17,0.508
2014-04-17 03:05:00,3078E-2,5C000000,-0724,1033,10250,027.6,045.3,0.644,753.6,01.17,0.508
2014-04-17 03:06:00,3130E-2,5C000000,-0724,1032,10157,027.5,045.3,0.650,753.6,01.17,0.508
2014-04-17 03:07:00,3105E-2,5C000800,-0724,1033,10297,027.5,045.3,0.651,753.7,01.17,0.508
2014-04-17 03:08:00,3090E-2,5C000000,-0724,1031,10206,027.5,045.3,0.643,753.6,01.17,0.508
2014-04-17 03:09:00,3079E-2,5C000000,-0724,1032,10263,027.5,045.3,0.651,753.6,01.17,0.508
2014-04-17 03:10:00,3128E-2,5C000800,-0724,1032,10312,027.5,045.3,0.665,753.7,01.17,0.508
2014-04-17 03:11:00,3103E-2,5C000800,-0724,1032,10304,027.5,045.3,0.665,753.7,01.17,0.508
2014-04-17 03:12:00,3117E-2,5C000800,-0724,1032,10210,027.5,045.3,0.664,753.7,01.17,0.508
2014-04-17 03:13:00,3107E-2,5C000800,-0724,1033,9976,027.5,045.3,0.673,753.7,01.17,0.508
2014-04-17 03:14:00,3109E-2,5C000800,-0724,1033,10041,027.5,045.3,0.680,753.8,01.17,0.508
2014-04-17 03:15:00,3108E-2,5C000800,-0724,1032,10080,027.5,045.3,0.674,753.7,01.17,0.508
2014-04-17 03:16:00,3114E-2,5C000800,-0724,1033,10279,027.5,045.3,0.677,753.7,01.17,0.508
2014-04-17 03:17:00,3155E-2,5C000800,-0724,1034,10036,027.5,045.3,0.686,753.8,01.17,0.508
2014-04-17 03:18:00,3115E-2,5C000800,-0724,1031,10230,027.5,045.3,0.691,753.8,01.17,0.508
2014-04-17 03:19:00,3134E-2,5C000800,-0724,1033,10202,027.5,045.3,0.693,753.8,01.17,0.508
2014-04-17 03:20:00,3087E-2,5C000800,-0724,1034,10108,027.5,045.3,0.698,753.9,01.17,0.508
2014-04-17 03:21:00,3121E-2,5C000800,-0724,1034,10178,027.5,045.3,0.698,753.9,01.17,0.508
2014-04-17 03:22:00,3088E-2,5C000800,-0724,1034,10136,027.5,045.3,0.698,753.8,01.17,0.508
2014-04-17 03:23:00,3174E-2,5C000800,-0724,1033,10324,027.5,045.3,0.702,753.8,01.17,0.508
2014-04-17 03:24:00,3107E-2,5C000800,-0724,1034,10255,027.5,045.3,0.712,753.9,01.17,0.508
2014-04-17 03:25:00,3162E-2,5C000800,-0724,1034,10109,027.5,045.3,0.713,753.9,01.17,0.508
2014-04-17 03:26:00,3089E-2,5C000800,-0724,1034,10243,027.5,045.3,0.716,753.9,01.17,0.508
2014-04-17 03:27:00,3105E-2,5C000800,-0724,1032,9954,027.4,045.3,0.720,753.9,01.17,0.508
2014-04-17 03:28:00,3076E-2,5C000800,-0724,1034,10079,027.5,045.3,0.723,754.0,01.17,0.508
2014-04-17 03:29:00,3116E-2,5C000800,-0724,1034,10249,027.4,045.3,0.720,753.9,01.17,0.508
2014-04-17 03:30:00,3121E-2,5C000800,-0724,1033,10258,027.4,045.3,0.723,753.9,01.17,0.508
2014-04-17 03:31:00,3134E-2,5C000800,-0724,1033,10127,027.4,045.3,0.729,754.0,01.17,0.508
2014-04-17 03:32:00,3137E-2,5C000800,-0724,1034,10159,027.4,045.3,0.734,754.0,01.17,0.508
2014-04-17 03:33:00,3107E-2,5C000800,-0724,1035,10082,027.4,045.3,0.736,754.0,01.17,0.508
2014-04-17 03:34:00,3144E-2,5C000810,-0724,1034,10151,027.4,045.3,0.741,754.0,01.17,0.508
2014-04-17 03:35:00,3131E-2,5C000800,-0724,1034,10117,027.4,045.3,0.746,754.1,01.17,0.508
2014-04-17 03:36:00,3136E-2,5C000800,-0724,1034,10172,027.4,045.3,0.746,754.1,01.17,0.508
2014-04-17 03:37:00,3125E-2,5C000800,-0724,1033,10110,027.4,045.3,0.742,754.0,01.17,0.508
2014-04-17 03:38:00,3112E-2,5C000800,-0724,1033,10061,027.4,045.3,0.742,754.1,01.17,0.508
2014-04-17 03:39:00,3177E-2,5C000800,-0724,1034,10245,027.4,045.3,0.741,754.1,01.17,0.508
2014-04-17 03:40:00,3112E-2,5C000800,-0724,1034,10191,027.4,045.3,0.739,754.1,01.17,0.508
2014-04-17 03:41:00,3185E-2,5C000800,-0724,1035,10192,027.4,045.3,0.745,754.1,01.17,0.508
2014-04-17 03:42:00,3134E-2,5C000800,-0724,1035,10109,027.4,045.3,0.744,754.2,01.17,0.508
2014-04-17 03:43:00,3151E-2,5C000800,-0724,1035,10194,027.4,045.3,0.753,754.2,01.17,0.508
2014-04-17 03:44:00,3226E-2,5C000800,-0724,1034,10118,027.4,045.3,0.756,754.3,01.17,0.508
2014-04-17 03:45:00,3144E-2,5C000800,-0724,1035,10283,027.4,045.3,0.752,754.2,01.17,0.508
2014-04-17 03:46:00,3133E-2,5C000800,-0724,1035,10153,027.4,045.3,0.757,754.3,01.17,0.508
2014-04-17 03:47:00,3194E-2,5C000800,-0724,1034,10131,027.4,045.3,0.757,754.3,01.17,0.508
2014-04-17 03:48:00,3155E-2,5C000800,-0724,1035,10200,027.4,045.3,0.753,754.3,01.17,0.508
2014-04-17 03:49:00,3163E-2,5C000800,-0724,1036,10063,027.3,045.3,0.755,754.3,01.17,0.508
2014-04-17 03:50:00,3196E-2,5C000800,-0724,1036,10126,027.3,045.3,0.764,754.4,01.17,0.508
2014-04-17 03:51:00,3223E-2,5C000800,-0724,1034,10105,027.3,045.3,0.761,754.4,01.17,0.508
2014-04-17 03:52:00,3194E-2,5C000800,-0724,1036,10354,027.3,045.3,0.758,754.4,01.17,0.508
2014-04-17 03:53:00,3158E-2,5C000800,-0724,1035,10236,027.3,045.3,0.759,754.4,01.17,0.508
2014-04-17 03:54:00,3146E-2,5C000800,-0724,1035,10105,027.3,045.3,0.763,754.5,01.17,0.508
2014-04-17 03:55:00,3148E-2,5C000800,-0724,1036,10245,027.3,045.3,0.764,754.6,01.17,0.508
2014-04-17 03:56:00,3171E-2,5C000810,-0724,1035,10062,027.3,045.3,0.763,754.6,01.17,0.508
2014-04-17 03:57:00,3165E-2,5C000800,-0724,1035,10204,027.3,045.3,0.761,754.5,01.17,0.508
2014-04-17 03:58:00,3201E-2,5C000800,-0724,1035,10034,027.3,045.3,0.763,754.6,01.17,0.508
2014-04-17 03:59:00,3201E-2,5C000800,-0724,1035,10321,027.3,045.3,0.767,754.6,01.17,0.508
2014-04-17 04:00:00,3192E-2,5C000800,-0724,1035,10008,027.3,045.3,0.766,754.6,01.17,0.508
2014-04-17 04:01:00,3179E-2,5C000800,-0724,1036,10116,027.3,045.3,0.759,754.6,01.17,0.508
2014-04-17 04:02:00,3165E-2,5C000800,-0724,1036,10118,027.3,045.3,0.756,754.6,01.17,0.508
2014-04-17 04:03:00,3203E-2,5C000800,-0724,1036,10167,027.3,045.3,0.762,754.6,01.17,0.508
2014-04-17 04:04:00,3240E-2,5C000810,-0724,1036,10303,027.3,045.3,0.768,754.7,01.17,0.508
2014-04-17 04:05:00,3191E-2,5C000800,-0724,1036,10212,027.3,045.3,0.772,754.7,01.17,0.508
2014-04-17 04:06:00,3196E-2,5C000810,-0724,1036,9911,027.3,045.3,0.765,754.8,01.17,0.508
2014-04-17 04:07:00,3230E-2,5C000800,-0724,1034,10091,027.3,045.3,0.764,754.8,01.17,0.508
2014-04-17 04:08:00,3213E-2,5C000800,-0724,1035,10060,027.3,045.3,0.759,754.8,01.17,0.508
2014-04-17 04:09:00,3250E-2,5C000800,-0724,1037,9924,027.3,045.3,0.759,754.7,01.17,0.508
2014-04-17 04:10:00,3206E-2,5C000800,-0724,1035,10246,027.2,045.3,0.765,754.8,01.17,0.508
2014-04-17 04:11:00,3215E-2,5C000800,-0724,1035,9994,027.3,045.3,0.768,754.9,01.17,0.508
2014-04-17 04:12:00,3226E-2,5C000800,-0724,1034,10294,027.3,045.3,0.765,754.9,01.17,0.508
2014-04-17 04:13:00,3179E-2,5C000800,-0724,1035,10061,027.3,045.3,0.761,754.8,01.17,0.508
2014-04-17 04:14:00,3204E-2,5C000800,-0724,1034,10259,027.3,045.3,0.767,754.9,01.17,0.508
2014-04-17 04:15:00,3182E-2,5C000800,-0724,1035,10116,027.3,045.3,0.766,754.9,01.17,0.508
2014-04-17 04:16:00,3200E-2,5C000800,-0724,1035,10186,027.3,045.3,0.763,754.9,01.17,0.508
2014-04-17 04:17:00,3234E-2,5C000800,-0724,1035,10165,027.3,045.3,0.749,754.9,01.17,0.508
2014-04-17 04:18:00,3227E-2,5C000800,-0724,1035,10005,027.3,045.3,0.700,755.0,01.17,0.508
2014-04-17 04:19:00,3182E-2,5C000800,-0724,1035,10280,027.2,045.3,0.687,754.9,01.17,0.508
2014-04-17 04:20:00,3184E-2,5C000800,-0724,1035,10097,027.2,045.3,0.680,755.0,01.17,0.508